Regional Weather Roundup
Issued by NWS Jackson, KY

Home | Current Version | Previous Version | Text Only | Print | Product List | Glossary Off
Versions: 1 2 3 4 5 6 7 8 9 10 11 12 13 14 15 16 17 18 19 20 21 22 23 24 25 26 27 28 29 30 31 32 33 34 35 36 37 38 39 40 41 42 43 44 45 46 47 48 49

000
ASUS43 KJKL 010410
RWRJKL

EAST KENTUCKY HOURLY WEATHER ROUNDUP
NATIONAL WEATHER SERVICE JACKSON KY
1200 AM EDT TUE SEP 01 2015

NOTE: "FAIR" INDICATES FEW OR NO CLOUDS BELOW 12,000 FEET WITH
NO SIGNIFICANT WEATHER AND/OR OBSTRUCTIONS TO VISIBILITY.

* THESE REPORTS ARE NOT UNDER NWS QUALITY CONTROL AND MAY NOT
  REPORT WEATHER SUCH AS PRECIPITATION AND FOG.

KYZ079-080-083-085-087-088-110-112-115-119-120-010500
...EASTERN KENTUCKY...

CITY           SKY/WX    TMP DP  RH WIND       PRES   REMARKS
JACKSON        CLEAR     71  64  78 CALM      30.15R
LONDON         CLEAR     69  63  81 CALM      30.14S
SOMERSET*      CLEAR     66  66 100 CALM      30.14S
MONTICELLO*    CLEAR     65  65 100 CALM      30.16R FOG
MIDDLESBORO*   CLEAR     68  65  91 CALM      30.16R
HARLAN APT*      N/A     70  66  88 MISG      30.16S
HAZARD APT*    MOCLDY    68  68 100 CALM      30.15R
BLACK MTN*       N/A     64  61  88 CALM        N/A
PIKEVILLE APT* PTCLDY    72  66  83 CALM      30.16R
BIG SANDY*     CLEAR     69  67  92 CALM      30.14S
MOREHEAD APT*  CLEAR     70  66  88 S3        30.15S
$$

KYZ035-036-041-042-044-050-067-078-099-010500
...CENTRAL KENTUCKY...

CITY           SKY/WX    TMP DP  RH WIND       PRES   REMARKS
MT STERLING*   CLEAR     68  68 100 CALM      30.15S
FLEMING/MASON* PTCLDY    70  68  94 CALM      30.14R
DANVILLE*      CLEAR     66  64  94 CALM      30.15R
RICHMOND*      CLEAR     70  64  83 CALM      30.13S
LEXINGTON      CLEAR     70  64  81 CALM      30.13S
FRANKFORT      CLEAR     68  64  87 CALM      30.12R
$$

KYZ091>093-OHZ055-061-077-WVZ005-015-034-035-042-010500
...SOUTHERN OHIO/WEST VIRGINIA...

CITY           SKY/WX    TMP DP  RH WIND       PRES   REMARKS
COVINGTON      CLEAR     72  66  81 CALM      30.11S
COLUMBUS       PTCLDY    72  67  84 CALM      30.10S
DAYTON         PTCLDY    71  68  90 SW5       30.12S
WILMINGTON     CLEAR     67  65  93 S3        30.12S FOG
HUNTINGTON     CLEAR     69  69 100 CALM      30.12R FOG
CHARLESTON     CLEAR     69  66  90 CALM      30.12S
PINEVILLE*     PTCLDY    66  66 100 MISG      30.22S FOG
BECKLEY        MOCLDY    65  61  87 CALM      30.21S
BLUEFIELD      PTCLDY    68  61  78 W3        30.23S
$$

VAZ002-007-008-TNZ017-027-036-066-071-010500
...SOUTHWEST VIRGINIA/EAST TENNESSEE...

CITY           SKY/WX    TMP DP  RH WIND       PRES   REMARKS
WISE*          CLEAR     70  59  68 CALM      30.23S
JONESVILLE*    CLEAR     66  64  94 CALM      30.18R
ABINGDON*      CLEAR     67  62  84 CALM      30.18S
BRISTOL        PTCLDY    66  64  93 CALM      30.15R
KNOXVILLE      PTCLDY    71  68  90 CALM      30.12R
OAK RIDGE      CLEAR     71  67  87 CALM      30.14R
CROSSVILLE     CLEAR     69  64  84 CALM      30.18S
NASHVILLE      CLEAR     73  65  75 S3        30.11S
$$

...KEY TO REMARKS...
VSB - VISIBILITY IN MILES
WCI - WIND CHILL INDEX
HX  - HEAT INDEX

$$


USA.gov is the U.S. government's official web portal to all federal, state and local government web resources and services.